TimeAKDT,TemperatureF,Dew PointF,Humidity,Sea Level PressureIn,VisibilityMPH,Wind Direction,Wind SpeedMPH,Gust SpeedMPH,PrecipitationIn,Events,Conditions,WindDirDegrees,DateUTC
12:16 AM,39.2,37.4,93,29.77,10.0,SSE,13.8,17.3,N/A,,Mostly Cloudy,160,2012-10-05 08:16:00
12:36 AM,41.0,35.6,81,29.75,10.0,ESE,12.7,-,N/A,,Overcast,120,2012-10-05 08:36:00
12:56 AM,39.2,35.6,87,29.75,10.0,SSE,4.6,-,N/A,,Mostly Cloudy,150,2012-10-05 08:56:00
1:16 AM,39.2,35.6,87,29.75,10.0,SE,6.9,-,N/A,,Mostly Cloudy,130,2012-10-05 09:16:00
1:36 AM,39.2,35.6,87,29.76,10.0,ESE,8.1,-,N/A,,Overcast,120,2012-10-05 09:36:00
1:56 AM,39.2,35.6,87,29.76,10.0,SE,9.2,-,N/A,,Overcast,140,2012-10-05 09:56:00
2:16 AM,39.2,35.6,87,29.77,10.0,South,8.1,-,N/A,,Overcast,170,2012-10-05 10:16:00
2:36 AM,39.2,35.6,87,29.77,10.0,SE,8.1,-,N/A,,Overcast,130,2012-10-05 10:36:00
2:56 AM,39.2,35.6,87,29.78,10.0,SE,15.0,20.7,N/A,,Mostly Cloudy,130,2012-10-05 10:56:00
3:16 AM,39.2,35.6,87,29.77,10.0,SE,11.5,21.9,N/A,,Overcast,140,2012-10-05 11:16:00
3:36 AM,37.4,35.6,93,29.78,10.0,ESE,10.4,-,N/A,,Partly Cloudy,120,2012-10-05 11:36:00
3:56 AM,35.6,33.8,93,29.77,10.0,ESE,9.2,-,N/A,,Clear,120,2012-10-05 11:56:00
4:16 AM,35.6,33.8,93,29.77,10.0,ESE,11.5,-,N/A,,Clear,110,2012-10-05 12:16:00
4:36 AM,35.6,33.8,93,29.76,10.0,South,8.1,-,N/A,,Clear,170,2012-10-05 12:36:00
4:56 AM,37.4,33.8,87,29.76,10.0,ESE,10.4,-,N/A,,Clear,120,2012-10-05 12:56:00
5:16 AM,37.4,33.8,87,29.76,10.0,ESE,13.8,18.4,N/A,,Clear,110,2012-10-05 13:16:00
5:36 AM,35.6,33.8,93,29.76,10.0,SSE,8.1,-,N/A,,Partly Cloudy,150,2012-10-05 13:36:00
5:56 AM,37.4,33.8,87,29.76,10.0,SE,9.2,-,N/A,,Clear,140,2012-10-05 13:56:00
6:16 AM,37.4,33.8,87,29.75,10.0,SSE,9.2,-,N/A,,Scattered Clouds,160,2012-10-05 14:16:00
6:36 AM,37.4,33.8,87,29.76,10.0,South,8.1,-,N/A,,Mostly Cloudy,180,2012-10-05 14:36:00
6:56 AM,37.4,35.6,93,29.75,10.0,SE,15.0,21.9,N/A,,Scattered Clouds,130,2012-10-05 14:56:00
7:16 AM,39.2,33.8,81,29.75,10.0,ESE,15.0,24.2,N/A,,Mostly Cloudy,120,2012-10-05 15:16:00
7:36 AM,39.2,35.6,87,29.74,10.0,ESE,17.3,24.2,N/A,,Mostly Cloudy,120,2012-10-05 15:36:00
7:56 AM,39.2,35.6,87,29.75,10.0,ESE,17.3,26.5,N/A,,Overcast,120,2012-10-05 15:56:00
8:16 AM,39.2,35.6,87,29.74,10.0,ESE,19.6,25.3,N/A,,Overcast,110,2012-10-05 16:16:00
8:36 AM,39.2,35.6,87,29.73,10.0,ESE,18.4,27.6,N/A,,Overcast,110,2012-10-05 16:36:00
8:56 AM,41.0,35.6,81,29.72,10.0,ESE,23.0,28.8,N/A,,Overcast,120,2012-10-05 16:56:00
9:16 AM,42.8,35.6,76,29.72,10.0,SE,21.9,31.1,N/A,,Overcast,140,2012-10-05 17:16:00
9:36 AM,41.0,35.6,81,29.71,10.0,SE,23.0,31.1,N/A,,Overcast,130,2012-10-05 17:36:00
9:56 AM,41.0,35.6,81,29.70,10.0,ESE,23.0,29.9,N/A,,Overcast,120,2012-10-05 17:56:00
10:36 AM,42.8,35.6,76,29.69,10.0,ESE,25.3,29.9,N/A,,Overcast,120,2012-10-05 18:36:00
10:56 AM,42.8,35.6,76,29.68,10.0,SE,23.0,31.1,N/A,,Overcast,130,2012-10-05 18:56:00
11:16 AM,42.8,37.4,81,29.69,10.0,SE,25.3,31.1,N/A,,Overcast,130,2012-10-05 19:16:00
11:36 AM,42.8,37.4,81,29.69,10.0,SE,24.2,31.1,N/A,,Overcast,130,2012-10-05 19:36:00
11:56 AM,42.8,35.6,76,29.68,10.0,SE,25.3,34.5,N/A,,Overcast,140,2012-10-05 19:56:00
12:16 PM,42.8,35.6,76,29.68,10.0,SE,24.2,33.4,N/A,,Overcast,140,2012-10-05 20:16:00
12:36 PM,42.8,35.6,76,29.69,10.0,SSE,29.9,38.0,N/A,,Overcast,150,2012-10-05 20:36:00
12:56 PM,44.6,37.4,76,29.69,10.0,SSE,23.0,33.4,N/A,,Overcast,150,2012-10-05 20:56:00
1:16 PM,44.6,35.6,71,29.68,10.0,SSE,26.5,38.0,N/A,,Mostly Cloudy,150,2012-10-05 21:16:00
1:36 PM,44.6,35.6,71,29.69,10.0,SSE,28.8,40.3,N/A,,Scattered Clouds,150,2012-10-05 21:36:00
1:56 PM,44.6,35.6,71,29.70,10.0,SSE,31.1,40.3,N/A,,Scattered Clouds,150,2012-10-05 21:56:00
2:16 PM,44.6,35.6,71,29.70,10.0,SSE,29.9,46.0,N/A,,Mostly Cloudy,150,2012-10-05 22:16:00
2:36 PM,44.6,35.6,71,29.70,10.0,SSE,23.0,33.4,N/A,,Overcast,150,2012-10-05 22:36:00
2:56 PM,44.6,35.6,71,29.71,10.0,SSE,26.5,36.8,N/A,,Overcast,150,2012-10-05 22:56:00
3:16 PM,44.6,35.6,71,29.71,10.0,SSE,21.9,36.8,N/A,,Overcast,160,2012-10-05 23:16:00
3:36 PM,44.6,35.6,71,29.70,10.0,SSE,25.3,40.3,N/A,,Overcast,160,2012-10-05 23:36:00
3:56 PM,44.6,35.6,71,29.70,10.0,SSE,28.8,36.8,N/A,,Overcast,150,2012-10-05 23:56:00
4:16 PM,44.6,35.6,71,29.70,10.0,SSE,26.5,38.0,N/A,,Overcast,150,2012-10-06 00:16:00
4:36 PM,44.6,35.6,71,29.70,10.0,SSE,23.0,36.8,N/A,,Overcast,150,2012-10-06 00:36:00
4:56 PM,44.6,37.4,76,29.70,10.0,SE,24.2,31.1,N/A,,Overcast,140,2012-10-06 00:56:00
5:16 PM,44.6,37.4,76,29.70,10.0,SE,19.6,31.1,N/A,,Overcast,130,2012-10-06 01:16:00
5:36 PM,44.6,37.4,76,29.70,10.0,SE,19.6,28.8,N/A,,Mostly Cloudy,130,2012-10-06 01:36:00
5:56 PM,44.6,37.4,76,29.70,10.0,SE,19.6,28.8,N/A,,Overcast,130,2012-10-06 01:56:00
6:16 PM,44.6,37.4,76,29.70,10.0,SE,16.1,24.2,N/A,,Overcast,130,2012-10-06 02:16:00
6:36 PM,44.6,37.4,76,29.70,10.0,SE,18.4,25.3,N/A,,Mostly Cloudy,140,2012-10-06 02:36:00
6:56 PM,42.8,37.4,81,29.70,10.0,SE,16.1,21.9,N/A,,Overcast,140,2012-10-06 02:56:00
7:36 PM,42.8,37.4,81,29.70,10.0,SSE,17.3,27.6,N/A,,Overcast,150,2012-10-06 03:36:00
7:56 PM,42.8,37.4,81,29.70,10.0,SSE,23.0,33.4,N/A,,Overcast,150,2012-10-06 03:56:00
8:16 PM,42.8,35.6,76,29.71,10.0,SSE,24.2,33.4,N/A,,Overcast,150,2012-10-06 04:16:00
8:36 PM,42.8,37.4,81,29.71,10.0,SSE,25.3,31.1,N/A,,Mostly Cloudy,150,2012-10-06 04:36:00
8:56 PM,42.8,37.4,81,29.71,10.0,SE,19.6,25.3,N/A,,Partly Cloudy,130,2012-10-06 04:56:00
9:16 PM,42.8,37.4,81,29.71,10.0,SE,18.4,27.6,N/A,,Mostly Cloudy,140,2012-10-06 05:16:00
9:36 PM,42.8,37.4,81,29.70,10.0,SE,21.9,28.8,N/A,,Overcast,140,2012-10-06 05:36:00
9:56 PM,42.8,37.4,81,29.71,10.0,SE,24.2,31.1,N/A,,Overcast,130,2012-10-06 05:56:00
10:16 PM,42.8,37.4,81,29.71,10.0,SE,21.9,31.1,N/A,,Mostly Cloudy,140,2012-10-06 06:16:00
10:36 PM,42.8,37.4,81,29.71,10.0,SE,20.7,28.8,N/A,,Mostly Cloudy,140,2012-10-06 06:36:00
10:56 PM,42.8,35.6,76,29.71,10.0,SE,20.7,27.6,N/A,,Overcast,140,2012-10-06 06:56:00
11:16 PM,42.8,35.6,76,29.71,10.0,SE,19.6,27.6,N/A,,Overcast,140,2012-10-06 07:16:00
11:36 PM,44.6,35.6,71,29.71,10.0,SSE,18.4,31.1,N/A,,Overcast,150,2012-10-06 07:36:00
11:56 PM,44.6,35.6,71,29.72,10.0,SE,19.6,26.5,N/A,,Overcast,140,2012-10-06 07:56:00